Location: Calvatone
(45.1167°N, 10.4333°E)
Time: 21:40:58
(UTC+00:00)

NOSS 2-1 (E) - Pass Details

Date: 28 January 2023
Orbit: 400 x 1778 km, 63.3° (Epoch: 09 March)

Event Time Altitude Azimuth Distance (km) Brightness Sun altitude
Rises 18:04:45 0° 321° (NW) 2,786 7.4 -18.6°
Reaches altitude 10° 18:06:40 10° 320° (NW) 2,018 6.6 -18.9°
Maximum altitude 18:11:13 82° 234° (SW) 805 4.1 -19.7°
Drops below altitude 10° 18:17:46 10° 147° (SSE) 2,863 6.7 -20.8°
Enters shadow 18:19:48 - 147° (SSE) 3,630 7.2 -21.2°
